Location: Most
(50.5133°N, 13.6207°E)
Time: 09:24:13
(UTC+01:00)

Oscar 11 - Pass Details

Date: 27 November 2022
Orbit: 611 x 621 km, 97.6° (Epoch: 28 January)

Event Time Altitude Azimuth Distance (km) Brightness Sun altitude
Rises 05:38:49 0° 7° (N) 2,895 10.5 -18.3°
Reaches altitude 10° 05:41:08 10° 359° (N) 1,983 9.5 -18.0°
Maximum altitude 05:45:05 37° 293° (WNW) 962 7.5 -17.4°
Enters shadow 05:46:11 31° 259° (W) 1,074 7.8 -17.2°
